Retour au catalogue

STARLINK-35266

ActifCommunicationsSSO
NORAD 65804·PAYLOAD·🇺🇸 United States

Lancé Sep 26, 2025 depuis Vandenberg Space Force Base

Loading…

Prochains Passages (prochaines 24 heures)

TLE

FraisSource: CelesTrak SupGP

Époque: Sep 14, 2026, 21:28 UTC

1 65804C 25218P   26257.89493056  .00038738  00000+0  12026-2 0  2575
2 65804  97.2839 115.3045 0001823  90.7012 201.7474 15.33415327    15

Suivez STARLINK-35266 en temps réel avec AllMySat

Download on the App Store